Date,TemperatureHighF,TemperatureAvgF,TemperatureLowF,DewpointHighF,DewpointAvgF,DewpointLowF,HumidityHigh,HumidityAvg,HumidityLow,PressureMaxIn,PressureMinIn,WindSpeedMaxMPH,WindSpeedAvgMPH,GustSpeedMaxMPH,PrecipitationSumIn
2013-1-1,41,38,35,30,28,24,75,66,58,30.01,29.90,14,3,14,0.00
2013-1-2,35,30,26,27,18,15,72,62,49,30.22,29.99,17,3,21,0.00
2013-1-3,38,29,21,20,17,15,79,63,47,30.23,30.12,14,2,20,0.00
2013-1-4,40,34,27,24,22,20,75,62,50,30.18,30.07,31,9,31,0.00
2013-1-5,41,35,31,27,24,21,74,63,52,30.35,30.12,13,4,20,0.00
2013-1-6,49,40,28,34,29,26,94,67,44,30.18,30.01,18,4,22,0.00
2013-1-7,43,38,27,30,27,23,86,66,54,30.42,30.13,16,4,17,0.00
2013-1-8,54,37,25,34,29,22,90,75,42,30.40,30.34,16,1,16,0.00
2013-1-9,48,39,28,41,34,25,91,82,60,30.37,30.22,12,1,12,0.00
2013-1-10,51,44,39,34,30,27,71,56,42,30.59,30.34,13,3,17,0.00
2013-1-11,44,40,35,40,34,29,95,83,70,30.49,30.08,3,0,5,0.17
2013-1-12,57,46,40,49,43,39,95,90,75,30.16,30.09,5,0,5,0.00
2013-1-13,49,45,41,49,44,39,100,97,93,30.13,29.97,3,0,3,0.01
2013-1-14,57,50,38,57,46,35,100,86,62,30.30,29.95,15,2,18,0.18
2013-1-15,39,37,33,37,35,31,94,92,84,30.33,30.14,6,1,8,0.53
2013-1-16,39,36,33,37,34,31,95,94,93,30.14,29.83,7,1,8,0.65
2013-1-17,42,39,36,37,31,27,95,73,57,30.12,29.95,10,2,13,0.00
2013-1-18,36,31,27,30,18,9,79,58,37,30.47,30.02,18,5,20,0.00
2013-1-19,53,40,26,30,26,15,80,59,41,30.39,29.94,14,5,15,0.00
2013-1-20,55,43,32,33,24,13,68,48,23,30.08,29.81,25,7,31,0.00
2013-1-21,39,31,26,27,19,11,76,60,49,30.09,29.80,24,4,28,0.00
2013-1-22,27,18,14,12,0,-4,55,45,33,30.26,29.91,26,10,31,0.00
2013-1-23,23,17,11,9,1,-2,64,49,36,30.32,30.13,18,5,23,0.00
2013-1-24,25,18,13,13,8,1,88,65,38,30.48,30.09,21,4,23,0.00
2013-1-25,21,17,13,16,8,1,90,68,46,30.48,30.05,7,0,8,0.00
2013-1-26,30,23,18,20,18,16,90,79,61,30.41,30.06,14,1,14,0.00
2013-1-27,36,26,17,22,18,14,91,75,52,30.58,30.41,12,1,12,0.02
2013-1-28,38,33,27,37,30,21,95,89,73,30.48,30.03,8,1,10,0.04
2013-1-29,66,48,36,54,44,34,100,86,63,30.13,29.98,10,1,10,0.01
2013-1-30,69,56,45,62,53,43,100,91,78,29.98,29.20,21,5,30,2.03
2013-1-31,57,40,27,56,27,12,100,60,43,29.89,29.15,38,18,46,0.67
2013-2-1,28,24,18,24,11,4,90,58,42,30.34,29.81,31,10,31,0.00
2013-2-2,27,21,14,24,13,6,92,71,46,30.35,30.00,12,2,15,0.00
2013-2-3,31,27,20,27,23,18,93,86,64,30.00,29.81,18,2,25,0.00
2013-2-4,35,28,21,21,16,11,71,62,48,30.08,29.88,16,4,28,0.00
2013-2-5,37,32,28,30,26,20,87,79,67,29.93,29.84,5,0,5,0.02
2013-2-6,41,34,28,30,26,20,90,72,55,30.33,29.92,18,4,25,0.00
2013-2-7,36,31,25,28,23,19,84,71,54,30.43,30.20,9,1,15,0.00
2013-2-8,40,35,32,37,31,22,94,86,67,30.20,29.73,31,6,37,0.17
2013-2-9,38,30,26,22,18,16,69,59,46,30.37,29.88,28,11,37,0.00
2013-2-10,44,32,19,27,17,14,83,58,30,30.47,30.24,9,1,10,0.00
2013-2-11,51,43,34,48,40,27,100,89,57,30.23,29.68,10,3,25,0.30
2013-2-12,52,44,34,34,30,27,76,57,43,29.99,29.79,20,6,25,0.00
2013-2-13,42,34,27,33,28,24,94,81,63,29.96,29.66,8,1,10,0.08
2013-2-14,47,36,30,32,30,28,94,79,51,30.00,29.75,7,1,10,0.19
2013-2-15,57,40,29,37,32,27,93,75,40,30.02,29.90,15,3,18,0.13
2013-2-16,35,33,30,31,28,18,95,83,59,30.00,29.81,15,3,15,0.06
2013-2-17,30,26,22,18,13,7,70,58,45,30.15,29.80,28,12,35,0.00
2013-2-18,40,28,18,18,10,6,63,48,30,30.35,30.15,18,4,30,0.00
2013-2-19,42,36,28,40,29,18,92,75,50,30.15,29.70,20,5,20,0.14
2013-2-20,36,29,23,22,15,10,63,56,49,30.12,29.83,25,11,30,0.00
2013-2-21,35,28,22,18,15,12,67,58,47,30.31,30.09,22,7,26,0.00
2013-2-22,32,29,27,28,22,17,92,75,64,30.37,30.21,6,1,13,0.00
2013-2-23,44,37,30,42,36,28,95,94,92,30.20,29.80,7,1,7,0.01
2013-2-24,48,39,30,39,31,21,100,74,46,30.09,29.79,26,8,30,0.01
2013-2-25,45,35,28,27,24,20,81,64,46,30.21,30.08,9,2,12,0.00
2013-2-26,41,35,27,39,31,23,94,86,70,30.22,29.62,18,5,28,0.45
2013-2-27,52,45,38,42,38,33,95,77,50,29.68,29.50,21,7,25,0.04
2013-2-28,45,41,38,36,30,26,82,66,48,29.71,29.62,30,6,30,0.00
2013-3-1,42,39,33,32,29,24,78,68,57,29.86,29.69,13,4,18,0.00
2013-3-2,36,32,29,25,23,20,77,69,59,29.86,29.79,18,5,18,0.00
2013-3-3,36,32,29,22,21,20,73,64,55,29.88,29.77,24,9,24,0.00
2013-3-4,40,32,26,21,18,15,67,57,44,30.01,29.88,25,10,31,0.00
2013-3-5,46,36,28,30,21,15,74,57,30,30.06,29.83,10,2,13,0.00
2013-3-6,38,35,32,34,32,27,94,89,67,29.98,29.64,36,14,36,0.65
2013-3-7,46,40,34,31,28,25,84,65,47,30.13,29.98,24,8,33,0.00
2013-3-8,46,40,33,29,27,23,77,61,50,30.25,30.11,33,11,33,0.00
2013-3-9,59,45,34,27,24,21,65,47,24,30.33,30.24,14,4,14,0.00
2013-3-10,61,45,29,35,26,12,85,52,19,30.33,30.23,15,3,17,0.00
2013-3-11,56,49,42,49,43,36,90,81,68,30.26,29.95,15,4,15,0.00
2013-3-12,55,50,40,53,44,30,95,82,62,29.95,29.73,17,5,20,1.04
2013-3-13,47,39,31,33,26,19,84,61,35,30.03,29.88,30,7,30,0.00
2013-3-14,41,35,30,21,17,14,64,49,34,30.08,30.00,30,13,33,0.00
2013-3-15,54,42,29,34,23,17,68,49,34,30.06,29.77,24,5,24,0.00
2013-3-16,50,43,36,38,34,32,85,71,54,29.93,29.66,16,3,16,0.00
2013-3-17,40,36,32,32,28,23,90,73,55,30.26,29.91,17,3,17,0.00
2013-3-18,35,35,34,33,27,20,94,75,56,30.31,29.87,12,2,12,0.37
2013-3-19,56,43,35,40,30,12,95,67,23,29.89,29.70,26,7,31,0.00
2013-3-20,49,40,30,24,18,14,65,41,25,29.97,29.76,26,7,28,0.00
2013-3-21,38,32,27,27,16,8,85,52,38,29.86,29.73,22,8,26,0.00
2013-3-22,42,33,25,21,17,11,65,53,40,29.98,29.85,24,8,26,0.00
2013-3-23,49,38,27,26,22,19,73,56,38,30.01,29.90,23,6,26,0.00
2013-3-24,42,36,27,30,24,20,85,63,47,29.99,29.66,12,1,15,0.00
2013-3-25,35,33,31,34,31,29,94,92,85,29.68,29.50,6,0,7,0.00
2013-3-26,49,39,31,33,30,25,94,72,41,29.96,29.68,15,5,18,0.06
2013-3-27,47,42,36,32,29,26,74,61,47,30.09,29.96,25,10,26,0.00
2013-3-28,47,41,35,33,30,26,77,64,45,30.21,30.07,20,6,22,0.00
2013-3-29,54,46,39,33,29,26,65,53,39,30.23,30.13,22,4,25,0.00
2013-3-30,57,46,34,34,28,21,84,53,25,30.22,30.11,14,2,17,0.00
2013-3-31,53,45,38,48,39,28,93,80,62,30.12,29.74,9,1,13,0.04
2013-4-1,61,48,38,45,36,18,94,66,42,29.98,29.73,28,8,30,0.00
2013-4-2,45,37,28,19,17,14,68,46,31,30.16,29.98,23,6,25,0.00
2013-4-3,47,37,30,19,16,11,56,44,25,30.36,30.16,24,7,26,0.00
2013-4-4,50,37,24,32,18,15,77,48,26,30.40,30.09,13,2,13,0.00
2013-4-5,62,48,36,38,30,20,93,56,25,30.08,29.81,22,5,23,0.10
2013-4-6,54,45,35,28,21,16,58,40,23,30.32,30.04,18,4,18,0.00
2013-4-7,68,52,38,43,36,29,83,56,36,30.28,29.98,17,6,23,0.00
2013-4-8,78,66,51,53,47,42,72,53,32,30.08,29.95,13,3,13,0.00
2013-4-9,82,71,60,56,53,51,71,54,36,30.08,29.91,22,5,22,0.00
2013-4-10,89,77,65,60,55,52,66,47,33,29.96,29.77,26,6,26,0.00
2013-4-11,83,68,53,62,57,50,90,71,46,29.91,29.77,17,4,20,0.00
2013-4-12,65,54,49,60,52,48,95,92,83,29.84,29.61,14,4,20,0.48
2013-4-13,66,53,41,48,41,37,93,67,39,29.96,29.77,21,5,22,0.00
2013-4-14,64,53,40,43,38,35,84,58,35,30.14,29.96,22,4,22,0.00
2013-4-15,60,55,51,50,47,40,89,75,62,30.30,30.13,10,2,15,0.02
2013-4-16,73,61,52,59,53,47,87,77,60,30.32,30.12,12,3,20,0.02
2013-4-17,70,64,59,61,57,54,92,79,65,30.25,30.12,17,4,17,0.00
2013-4-18,72,62,55,63,57,51,95,84,67,30.24,30.02,10,3,15,0.21
2013-4-19,76,64,51,66,60,49,94,85,69,30.02,29.60,21,4,25,0.65
2013-4-20,56,50,44,49,34,28,93,55,36,30.34,29.79,26,8,30,0.05
2013-4-21,53,45,36,34,26,22,75,50,32,30.59,30.34,16,5,18,0.00
2013-4-22,55,45,34,38,35,31,90,68,49,30.58,30.41,17,4,18,0.00
2013-4-23,60,49,44,44,41,36,88,73,50,30.41,30.12,13,3,13,0.00
2013-4-24,75,60,43,58,50,41,94,73,45,30.13,29.78,18,5,26,0.00
2013-4-25,61,52,43,51,35,30,76,54,31,30.32,29.98,21,6,26,0.00
2013-4-26,62,52,41,39,36,30,84,56,31,30.46,30.30,14,3,15,0.00
2013-4-27,69,55,39,40,37,34,91,56,30,30.43,30.29,8,2,10,0.00
2013-4-28,67,56,41,44,40,33,89,58,36,30.30,30.15,12,3,15,0.00
2013-4-29,57,54,51,55,51,40,95,90,56,30.17,30.07,6,1,10,0.33
2013-4-30,60,55,50,55,52,45,95,91,80,30.30,30.10,9,1,12,0.17
2013-5-1,68,56,42,48,41,37,89,61,33,30.43,30.30,9,2,15,0.00
2013-5-2,68,55,41,49,45,39,94,72,47,30.45,30.32,12,2,15,0.00
2013-5-3,66,54,44,47,44,41,93,71,45,30.39,30.31,12,3,15,0.00
2013-5-4,66,54,43,47,43,40,90,68,45,30.34,30.18,12,2,15,0.00
2013-5-5,60,52,43,46,42,39,88,72,54,30.25,30.16,13,3,13,0.00
2013-5-6,61,53,44,56,50,41,91,87,81,30.20,30.08,12,3,15,0.01
2013-5-7,62,59,56,60,57,55,95,94,90,30.09,29.96,14,5,17,1.03
2013-5-8,71,61,56,58,56,53,95,85,59,30.01,29.94,9,1,12,0.00
2013-5-9,71,61,53,62,55,51,94,82,62,30.00,29.92,16,2,16,0.03
2013-5-10,82,68,53,61,57,51,95,73,41,30.02,29.88,13,2,22,0.77
2013-5-11,76,65,61,65,62,58,95,90,65,29.92,29.73,10,1,17,0.80
2013-5-12,61,57,49,59,40,30,94,57,33,30.03,29.75,24,7,25,0.00
2013-5-13,56,48,40,35,31,26,81,53,32,30.16,30.02,20,4,25,0.00
2013-5-14,60,49,34,46,35,30,88,61,38,30.20,30.05,13,2,23,0.00
2013-5-15,80,64,53,66,56,44,91,75,57,30.06,29.70,10,1,18,0.10
2013-5-16,78,72,67,66,62,57,87,69,61,29.92,29.75,17,4,22,0.00
2013-5-17,80,69,57,59,53,45,92,59,33,30.16,29.93,14,1,14,0.00
2013-5-18,66,62,58,58,55,50,94,79,60,30.25,30.16,7,1,10,0.02
2013-5-19,67,62,58,64,61,56,100,96,89,30.22,30.11,2,0,7,0.04
2013-5-20,78,69,64,70,66,63,100,90,72,30.13,29.99,6,1,8,0.00
2013-5-21,82,73,65,73,68,64,100,85,70,30.01,29.89,10,1,10,0.00
2013-5-22,87,76,66,74,69,64,95,81,57,29.94,29.84,9,2,13,0.03
2013-5-23,79,69,63,69,65,61,95,87,69,29.91,29.76,18,1,22,0.98
2013-5-24,63,56,48,62,49,36,95,80,61,30.13,29.74,23,9,26,0.10
2013-5-25,64,53,43,41,37,34,77,56,37,30.15,30.07,22,10,25,0.00
2013-5-26,70,58,48,44,39,35,67,50,32,30.22,30.12,21,6,25,0.00
2013-5-27,70,59,45,52,45,41,89,62,35,30.29,30.19,9,1,12,0.00
2013-5-28,76,65,56,66,59,51,93,84,69,30.22,30.08,3,0,10,0.07
2013-5-29,87,76,65,69,66,63,95,74,51,30.13,30.07,15,3,18,0.00
2013-5-30,90,79,66,71,67,63,90,69,44,30.19,30.11,10,2,12,0.00
2013-5-31,90,78,67,69,66,64,90,68,42,30.16,30.04,9,2,13,0.00
2013-6-1,90,79,68,71,67,64,87,70,50,30.06,29.93,13,2,13,0.00
2013-6-2,82,75,68,72,68,64,95,79,67,29.93,29.85,10,2,15,0.48
2013-6-3,79,71,66,69,66,58,100,84,63,29.95,29.84,17,1,20,0.38
2013-6-4,73,65,56,58,51,46,86,62,41,30.14,29.95,16,3,16,0.00
2013-6-5,78,65,52,58,54,50,93,69,45,30.19,30.06,5,1,8,0.00
2013-6-6,71,65,60,63,59,54,95,82,72,30.09,29.89,3,0,7,0.40
2013-6-7,70,67,64,68,66,62,100,96,93,29.88,29.61,16,3,16,1.74
2013-6-8,78,69,64,65,63,61,94,81,60,30.10,29.69,13,3,13,0.00
2013-6-9,80,70,61,69,64,59,94,82,59,30.21,30.10,5,0,8,0.01
2013-6-10,77,71,67,74,69,65,95,93,86,30.12,29.80,10,0,15,1.58
2013-6-11,80,72,66,68,66,64,100,82,65,29.85,29.78,20,5,23,0.00
2013-6-12,84,75,64,72,67,62,91,78,62,29.88,29.80,15,2,18,0.00
2013-6-13,84,72,68,71,67,58,93,83,62,29.83,29.48,20,5,26,0.55
2013-6-14,77,67,58,59,56,51,90,70,47,29.98,29.59,18,7,26,0.01
2013-6-15,79,69,58,61,58,53,91,69,41,30.08,29.98,14,3,17,0.00
2013-6-16,81,72,61,68,63,57,91,76,61,30.04,29.89,18,3,20,0.00
2013-6-17,85,77,69,71,67,63,87,72,58,29.97,29.89,12,3,15,0.00
2013-6-18,75,70,64,70,67,62,94,90,84,29.93,29.81,3,0,8,0.12
2013-6-19,74,67,61,63,61,58,95,82,61,30.17,29.90,7,1,8,0.06
2013-6-20,79,68,57,65,60,55,94,77,53,30.28,30.17,8,1,10,0.00
2013-6-21,82,69,56,61,56,50,91,67,39,30.32,30.25,7,1,10,0.00
2013-6-22,85,72,59,70,64,57,95,76,54,30.27,30.15,10,2,12,0.00
2013-6-23,82,73,64,73,68,62,93,85,72,30.21,30.08,8,0,8,0.09
2013-6-24,90,77,70,76,69,65,94,79,50,30.14,30.04,16,2,26,0.00
2013-6-25,89,78,67,74,69,64,94,76,56,30.05,29.91,22,4,23,0.28
2013-6-26,87,73,65,75,68,63,95,87,61,29.93,29.83,16,2,22,0.68
2013-6-27,82,74,68,75,71,66,100,90,77,29.84,29.62,9,1,15,0.92
2013-6-28,86,76,70,74,70,67,94,82,64,29.64,29.51,13,2,15,0.00
2013-6-29,85,76,65,71,66,63,93,74,51,29.71,29.54,13,2,13,0.00
2013-6-30,85,75,70,76,72,68,94,89,66,29.87,29.71,6,0,20,0.75
2013-7-1,80,75,71,75,72,69,95,91,82,30.01,29.86,5,0,10,0.30
2013-7-2,82,75,72,74,72,70,93,89,77,30.19,30.00,9,1,15,0.03
2013-7-3,84,76,71,76,72,69,95,89,74,30.25,30.18,7,0,10,0.23
2013-7-4,86,78,72,76,72,69,95,83,66,30.27,30.19,9,2,15,0.00
2013-7-5,88,80,72,77,73,70,94,80,62,30.24,30.14,13,3,17,0.00
2013-7-6,91,81,72,76,73,70,94,77,58,30.20,30.08,10,2,12,0.00
2013-7-7,91,78,69,77,72,67,93,82,61,30.13,30.01,23,2,23,0.07
2013-7-8,84,75,69,72,69,67,94,82,62,30.11,30.05,10,2,13,0.04
2013-7-9,81,76,70,75,71,68,92,85,76,30.12,30.02,6,1,8,0.01
2013-7-10,86,78,73,76,73,70,93,86,71,30.03,29.88,9,1,12,0.00
2013-7-11,84,76,72,73,70,68,94,83,62,29.94,29.85,12,2,12,0.03
2013-7-12,74,69,65,69,66,63,94,91,81,30.03,29.92,12,2,15,0.64
2013-7-13,82,74,68,76,70,66,95,89,77,30.30,30.02,5,0,7,0.09
2013-7-14,88,79,72,77,74,70,95,84,61,30.36,30.29,7,1,12,0.00
2013-7-15,91,81,70,78,73,68,95,79,56,30.32,30.20,14,2,14,0.00
2013-7-16,91,83,76,76,73,70,90,73,52,30.26,30.19,14,2,14,0.00
2013-7-17,92,82,74,76,72,69,92,74,48,30.23,30.11,10,2,12,0.00
2013-7-18,94,84,73,79,75,71,92,76,55,30.14,30.02,8,1,10,0.00
2013-7-19,94,84,75,76,73,66,85,71,51,30.03,29.89,10,2,13,0.01
2013-7-20,90,80,71,73,70,66,86,73,54,29.91,29.81,23,3,26,0.73
2013-7-21,88,77,69,72,69,65,88,77,54,29.95,29.90,7,1,8,0.01
2013-7-22,86,77,71,74,70,67,88,80,62,29.94,29.77,10,0,13,0.37
2013-7-23,83,76,70,72,68,65,88,77,57,29.78,29.66,14,3,17,0.42
2013-7-24,80,74,69,67,64,56,83,70,58,29.94,29.69,8,1,10,0.00
2013-7-25,76,67,58,61,56,50,84,68,53,30.04,29.93,14,3,14,0.00
2013-7-26,81,70,62,62,59,55,86,69,43,30.10,30.03,7,1,12,0.00
2013-7-27,83,71,63,68,64,58,88,79,60,30.07,29.93,9,1,18,0.72
2013-7-28,80,73,67,69,66,62,88,80,60,30.02,29.90,9,1,13,0.03
2013-7-29,79,69,61,61,57,52,87,67,41,30.17,29.99,12,2,13,0.08
2013-7-30,79,69,59,61,57,54,84,67,43,30.24,30.16,10,2,13,0.00
2013-7-31,78,71,62,66,62,58,86,75,56,30.17,30.03,5,0,8,0.00
2013-8-1,81,72,66,71,66,62,88,82,64,30.03,29.83,7,1,8,0.49
2013-8-2,83,74,65,67,63,61,86,71,49,29.97,29.86,10,2,13,0.00
2013-8-3,74,68,65,65,62,61,85,83,69,29.99,29.92,10,0,10,0.18
2013-8-4,79,69,61,61,56,50,86,66,41,30.03,29.91,13,3,17,0.00
2013-8-5,78,68,57,58,54,51,83,64,40,30.11,30.03,9,1,10,0.00
2013-8-6,71,66,64,65,61,57,87,84,78,30.09,30.02,0,0,3,0.12
2013-8-7,80,72,66,71,67,62,88,83,71,30.09,30.01,6,0,10,0.10
2013-8-8,83,75,68,73,69,64,89,83,66,30.08,29.99,18,1,20,1.35
2013-8-9,85,78,74,74,71,69,88,80,65,29.99,29.88,12,3,17,0.62
2013-8-10,81,75,69,69,65,61,85,74,51,30.09,29.95,7,1,8,0.00
2013-8-11,84,74,66,70,65,62,86,75,57,30.13,30.02,5,0,8,0.00
2013-8-12,84,75,67,70,66,63,86,75,54,30.05,29.93,7,1,10,0.00
2013-8-13,82,75,71,69,67,62,87,78,58,29.92,29.75,13,2,13,0.00
2013-8-14,72,66,56,61,51,46,77,60,46,30.10,29.83,22,5,23,0.00
2013-8-15,76,64,54,56,50,44,84,64,39,30.20,30.10,9,1,10,0.00
2013-8-16,76,65,54,58,53,50,87,69,46,30.21,30.15,5,0,7,0.00
2013-8-17,79,67,56,59,56,52,87,69,46,30.28,30.21,7,1,10,0.00
2013-8-18,72,67,63,60,59,57,86,77,61,30.25,30.18,8,1,8,0.00
2013-8-19,74,67,60,65,61,56,86,80,69,30.19,30.08,10,1,10,0.00
2013-8-20,84,73,62,68,63,58,88,73,48,30.17,30.10,12,1,12,0.00
2013-8-21,86,75,64,72,67,60,87,77,53,30.21,30.08,8,1,10,0.00
2013-8-22,85,77,69,69,67,63,86,73,54,30.10,29.94,10,3,13,0.00
2013-8-23,74,69,62,66,63,58,85,79,71,30.13,29.95,12,1,12,0.03
2013-8-24,80,68,59,61,57,52,85,69,39,30.35,30.13,12,2,12,0.00
2013-8-25,80,68,56,61,55,50,87,66,37,30.42,30.28,9,1,12,0.00
2013-8-26,84,72,60,64,59,54,81,66,45,30.30,30.01,14,2,14,0.00
2013-8-27,87,78,70,71,67,63,82,70,54,30.00,29.89,13,2,13,0.02
2013-8-28,77,74,70,70,68,66,86,83,75,29.93,29.84,10,1,12,0.05
2013-8-29,82,74,70,69,67,65,87,78,62,30.04,29.86,12,3,12,0.01
2013-8-30,85,76,69,70,66,64,85,74,55,30.05,29.90,13,2,13,0.00
2013-8-31,88,77,69,72,68,64,86,74,53,29.91,29.80,9,1,12,0.00
2013-9-1,91,78,68,73,69,64,86,74,49,29.86,29.77,8,1,8,0.00
2013-9-2,88,78,70,71,68,66,85,73,52,29.81,29.73,12,2,13,0.00
2013-9-3,81,75,65,70,61,54,84,65,41,29.96,29.74,15,3,17,0.00
2013-9-4,80,68,56,56,52,47,83,61,32,30.09,29.96,12,2,12,0.00
2013-9-5,80,69,58,61,56,49,84,64,44,30.14,30.02,16,3,18,0.00
2013-9-6,74,62,54,52,47,42,83,59,36,30.27,30.15,9,2,12,0.00
2013-9-7,80,65,51,60,53,47,86,69,41,30.16,29.95,8,2,10,0.00
2013-9-8,84,72,64,65,61,53,85,70,50,30.08,29.90,10,2,10,0.01
2013-9-9,77,68,57,65,55,46,81,65,54,30.21,30.08,10,1,10,0.00
2013-9-10,90,78,70,72,68,64,85,73,53,30.19,30.10,10,1,10,0.00
2013-9-11,93,80,71,74,69,66,87,71,45,30.16,30.02,9,1,13,0.00
2013-9-12,87,75,68,73,67,64,87,79,60,30.02,29.75,13,1,20,0.26
2013-9-13,75,67,60,64,56,47,87,68,39,29.93,29.71,17,3,18,0.00
2013-9-14,67,58,50,49,46,43,84,66,43,30.17,29.94,10,2,13,0.00
2013-9-15,75,60,45,55,48,41,87,69,41,30.24,30.10,13,1,13,0.00
2013-9-16,71,63,56,58,54,51,85,75,52,30.25,30.04,14,2,17,0.02
2013-9-17,65,56,46,51,42,36,84,63,34,30.43,30.25,15,3,15,0.00
2013-9-18,71,54,42,48,44,38,87,70,38,30.35,30.20,7,1,12,0.02
2013-9-19,77,60,45,58,50,41,87,73,46,30.21,30.09,9,1,10,0.00
2013-9-20,80,64,51,61,55,47,89,74,48,30.10,29.98,7,1,10,0.00
2013-9-21,75,65,58,62,58,54,87,80,58,29.99,29.70,9,1,13,0.75
2013-9-22,69,61,52,58,52,47,89,73,49,29.95,29.73,13,2,15,0.00
2013-9-23,64,56,48,47,44,40,84,67,45,30.09,29.95,15,2,17,0.00
2013-9-24,72,56,44,51,44,40,86,69,37,30.12,29.95,13,2,13,0.00
2013-9-25,73,58,46,53,46,40,86,68,32,29.99,29.89,8,1,8,0.00
2013-9-26,73,61,52,52,50,48,86,71,45,30.08,29.94,10,1,10,0.00
2013-9-27,70,61,54,58,54,49,86,78,59,30.26,30.08,6,0,8,0.00
2013-9-28,69,60,53,54,52,49,87,76,54,30.32,30.23,9,1,9,0.00
2013-9-29,72,58,49,56,50,45,89,76,50,30.23,30.08,7,0,8,0.00
2013-9-30,73,59,49,54,50,45,88,74,47,30.10,30.00,10,1,10,0.00
2013-10-1,80,65,52,60,55,48,86,72,44,30.08,29.98,13,2,13,0.00
2013-10-2,83,70,58,62,58,54,86,68,43,30.09,30.01,14,3,15,0.00
2013-10-3,82,69,59,64,60,54,86,75,52,30.14,30.05,7,0,7,0.00
2013-10-4,85,71,59,66,61,55,88,74,47,30.10,30.02,8,1,10,0.00
2013-10-5,86,73,64,66,63,60,85,72,46,30.10,30.01,8,1,8,0.01
2013-10-6,87,73,64,68,63,60,88,74,43,30.04,29.93,8,1,15,0.00
2013-10-7,73,65,55,67,59,44,87,82,66,30.05,29.78,32,2,32,0.90
2013-10-8,65,55,46,48,45,42,86,71,45,30.29,30.05,20,2,20,0.00
2013-10-9,59,54,50,49,47,44,85,75,67,30.33,30.22,17,4,17,0.04
2013-10-10,57,54,51,53,51,47,89,87,84,30.22,30.00,20,6,20,1.36
2013-10-11,61,59,56,58,55,53,89,89,88,30.01,29.94,14,6,14,0.87
2013-10-12,64,61,58,58,56,54,89,84,72,30.18,30.00,21,4,21,0.10
2013-10-13,62,58,54,56,53,50,88,85,74,30.34,30.18,7,2,12,0.03
2013-10-14,67,58,53,53,50,49,86,77,54,30.35,30.24,10,1,10,0.00
2013-10-15,71,57,48,52,47,38,89,71,33,30.25,30.09,5,0,8,0.00
2013-10-16,69,61,56,60,55,50,87,82,72,30.10,29.92,3,0,5,0.00
2013-10-17,72,64,60,62,59,54,89,83,68,29.93,29.73,17,1,22,0.02
2013-10-18,64,56,46,54,43,40,85,63,43,30.01,29.82,23,7,23,0.00
2013-10-19,64,53,43,54,46,39,87,78,53,30.00,29.79,12,1,13,0.00
2013-10-20,60,51,42,45,37,34,84,61,38,30.10,29.85,24,7,25,0.00
2013-10-21,67,51,37,45,39,34,87,68,32,30.15,29.97,10,2,13,0.00
2013-10-22,61,51,43,49,43,37,88,74,56,29.97,29.82,13,2,15,0.00
2013-10-23,54,47,42,38,35,32,75,63,43,29.87,29.66,17,4,17,0.00
2013-10-24,49,43,37,35,29,25,79,61,41,30.12,29.88,31,10,31,0.00
2013-10-25,54,42,34,33,29,27,80,62,38,30.31,30.11,24,6,24,0.00
2013-10-26,56,44,31,31,28,26,83,56,35,30.29,29.93,15,3,18,0.00
2013-10-27,58,48,38,34,32,30,80,56,37,30.15,29.94,18,4,18,0.00
2013-10-28,62,46,33,41,35,29,86,68,37,30.28,30.15,12,1,12,0.00
2013-10-29,62,48,36,42,38,32,86,72,44,30.38,30.28,6,0,7,0.00
2013-10-30,66,53,44,55,48,39,88,83,67,30.33,30.15,6,0,7,0.12
2013-10-31,66,59,53,58,54,49,89,83,73,30.20,29.79,9,1,13,0.02
2013-11-1,73,64,55,61,56,51,87,76,51,29.78,29.59,21,5,21,0.12
2013-11-2,64,56,48,52,44,37,87,65,44,29.87,29.65,24,4,24,0.00
2013-11-3,54,46,37,40,30,20,78,56,28,30.46,29.87,18,5,20,0.00
2013-11-4,45,37,29,26,21,17,73,54,32,30.62,30.46,13,2,13,0.00
2013-11-5,56,46,34,45,37,26,78,71,60,30.60,30.47,6,0,8,0.00
2013-11-6,68,56,45,51,47,41,88,74,52,30.46,30.06,12,2,12,0.00
2013-11-7,59,52,42,53,43,22,86,73,44,30.06,29.87,25,7,28,0.05
2013-11-8,48,42,34,29,24,21,71,50,35,30.30,30.06,35,7,35,0.00
2013-11-9,53,42,28,29,26,23,80,55,34,30.33,30.02,13,2,15,0.00
2013-11-10,58,48,42,33,27,25,55,46,31,30.20,29.95,33,10,33,0.00
2013-11-11,56,46,34,31,28,26,77,51,32,30.29,30.00,17,4,17,0.00
2013-11-12,49,39,29,36,21,11,74,49,34,30.37,29.97,18,5,25,0.00
2013-11-13,41,33,28,19,17,14,64,52,38,30.44,30.36,20,5,22,0.00
2013-11-14,56,40,28,22,14,5,62,40,13,30.36,30.21,16,3,16,0.00
2013-11-15,60,43,29,37,26,18,81,56,21,30.26,30.18,8,1,8,0.00
2013-11-16,51,47,42,46,43,38,88,85,68,30.33,30.23,6,0,7,0.09
2013-11-17,62,55,49,55,51,45,89,86,77,30.23,29.75,14,1,14,0.05
2013-11-18,65,58,48,57,34,18,87,43,17,29.92,29.69,37,15,41,0.03
2013-11-19,48,42,33,27,24,22,66,49,36,30.36,29.92,25,8,25,0.00
2013-11-20,44,34,28,22,19,11,77,57,26,30.56,30.35,9,1,12,0.00
2013-11-21,48,39,26,37,30,19,82,70,60,30.57,30.38,2,0,7,0.00
2013-11-22,60,52,44,50,44,37,83,75,65,30.38,30.00,15,2,18,0.00
2013-11-23,54,41,29,47,25,7,75,52,37,30.18,30.03,24,13,28,0.00
2013-11-24,30,25,21,10,7,3,60,45,35,30.49,30.17,36,15,37,0.00
2013-11-25,36,27,19,11,8,3,60,45,26,30.54,30.33,14,3,15,0.00
2013-11-26,46,35,31,43,26,11,89,72,41,30.33,29.56,12,1,15,0.38
2013-11-27,46,36,28,43,29,14,89,77,53,29.99,29.49,28,13,35,0.21
2013-11-28,35,29,25,20,14,10,67,53,34,30.46,29.99,25,9,30,0.00
2013-11-29,40,30,23,21,19,16,81,62,42,30.70,30.45,16,3,20,0.00
2013-11-30,35,29,20,23,18,14,79,63,46,30.70,30.37,5,0,7,0.00
2013-12-1,44,35,24,31,25,19,84,69,49,30.36,30.01,9,1,10,0.00
2013-12-2,48,41,37,35,33,31,81,72,57,30.01,29.87,3,0,5,0.00
2013-12-3,56,44,36,37,34,32,83,70,47,29.99,29.88,13,1,13,0.00
2013-12-4,53,44,35,45,39,31,86,80,69,30.09,29.99,3,0,3,0.00
2013-12-5,67,57,49,58,52,45,88,83,69,30.07,29.93,12,2,17,0.00
2013-12-6,63,49,36,59,45,33,88,87,84,30.17,29.88,16,5,17,1.06
2013-12-7,40,35,29,33,28,20,88,75,60,30.52,30.13,17,4,18,0.18
2013-12-8,30,27,24,26,21,17,87,78,64,30.58,30.28,9,2,10,0.00
2013-12-9,34,32,30,32,29,26,91,89,87,30.28,30.02,7,1,10,0.39
2013-12-10,34,31,26,31,26,18,92,84,66,30.19,29.97,15,2,15,0.04
2013-12-11,37,27,22,19,17,15,84,66,42,30.39,30.19,13,2,13,0.00
2013-12-12,31,25,19,20,11,6,72,57,41,30.41,30.22,22,4,22,0.00
2013-12-13,38,29,21,22,14,7,71,53,37,30.30,30.20,29,5,29,0.01
2013-12-14,36,33,29,32,26,21,90,78,61,30.32,29.69,10,2,13,0.56
2013-12-15,41,34,30,34,28,21,90,77,62,29.92,29.62,30,8,30,0.14
2013-12-16,34,31,28,24,21,17,76,67,61,30.18,29.91,21,4,21,0.00
2013-12-17,34,31,29,28,26,23,86,80,73,30.16,29.93,6,0,8,0.00
2013-12-18,36,31,26,26,22,18,87,69,53,30.20,29.97,24,5,26,0.00
2013-12-19,57,38,24,30,25,19,86,62,33,30.19,30.07,16,2,16,0.00
2013-12-20,56,48,36,41,32,28,72,56,40,30.10,29.99,9,2,15,0.00
2013-12-21,70,59,51,58,49,41,80,70,57,30.02,29.90,15,4,17,0.02
2013-12-22,68,63,61,62,58,56,89,84,79,30.01,29.83,22,8,25,0.09
2013-12-23,62,53,36,57,47,26,91,82,66,30.22,29.93,23,4,23,0.76
2013-12-24,37,31,21,27,19,6,78,61,41,30.44,30.19,26,8,30,0.00
2013-12-25,32,23,17,16,11,9,76,61,40,30.55,30.37,7,1,8,0.00
2013-12-26,42,30,21,24,20,16,85,68,43,30.37,30.20,26,3,26,0.00
2013-12-27,48,36,24,22,18,14,78,51,25,30.40,30.30,18,3,18,0.00
2013-12-28,57,42,27,28,24,20,77,51,26,30.31,30.11,25,3,25,0.00
2013-12-29,45,42,38,42,36,26,90,80,52,30.10,29.53,20,4,20,0.98
2013-12-30,44,38,30,38,29,17,89,70,59,30.17,29.80,20,5,20,0.00
2013-12-31,40,32,27,27,19,15,70,59,44,30.31,30.08,36,7,36,0.00
2014-1-1,44,32,23,28,22,16,87,68,45,30.40,30.12,12,2,13,0.00
2014-1-2,35,31,24,30,27,21,89,87,82,30.12,29.62,8,1,12,0.00